EFW2BZ EGKK-LEMG

Flight info

Callsign EFW2BZ
Flight time N/A
Altitude 35000
Route IMVUR1Z IMVUR N63 SAM M195 MARUK N621 LELNA DCT NOVAN DCT DELOG DCT CRISA N864 VULPE VULPE2A
Aircraft A321/M-SDE3FGIJ1RWXY/SB1

Departure

Time 2026-05-06 17:05
Airport London Gatwick Airport (EGKK)

Arrival

Time N/A
Airport Málaga-Costa del Sol Airport (LEMG)
Time Latitude Longitude Altitude Speed Heading
2026-05-06 16:25 51.15482 -0.16962 204 ft 0 kts 348°
2026-05-06 16:26 51.15484 -0.16962 204 ft 0 kts 348°
2026-05-06 16:38 51.15483 -0.16962 204 ft 0 kts 348°
2026-05-06 16:48 51.15475 -0.16959 213 ft 4 kts 348°
2026-05-06 16:48 51.15453 -0.16952 204 ft 3 kts 347°
2026-05-06 16:48 51.15436 -0.16937 216 ft 4 kts 277°
2026-05-06 16:48 51.15438 -0.16899 213 ft 4 kts 257°
2026-05-06 16:49 51.15440 -0.16885 209 ft 0 kts 257°
2026-05-06 16:51 51.15440 -0.16886 209 ft 0 kts 257°
2026-05-06 16:51 51.15438 -0.16898 213 ft 2 kts 257°
2026-05-06 16:51 51.15434 -0.16928 216 ft 5 kts 257°
2026-05-06 16:52 51.15423 -0.17012 204 ft 9 kts 257°
2026-05-06 16:52 51.15407 -0.17121 204 ft 11 kts 252°
2026-05-06 16:52 51.15377 -0.17243 211 ft 13 kts 250°
2026-05-06 16:52 51.15348 -0.17350 205 ft 9 kts 215°
2026-05-06 16:53 51.15302 -0.17425 211 ft 10 kts 256°
2026-05-06 16:53 51.15286 -0.17549 204 ft 12 kts 258°
2026-05-06 16:53 51.15267 -0.17689 204 ft 14 kts 258°
2026-05-06 16:53 51.15245 -0.17850 204 ft 15 kts 257°
2026-05-06 16:54 51.15220 -0.18024 204 ft 17 kts 257°
2026-05-06 16:54 51.15193 -0.18218 206 ft 19 kts 258°
2026-05-06 16:54 51.15172 -0.18424 210 ft 17 kts 258°
2026-05-06 16:54 51.15145 -0.18617 203 ft 19 kts 257°
2026-05-06 16:55 51.15115 -0.18828 206 ft 20 kts 257°
2026-05-06 16:55 51.15085 -0.19052 214 ft 21 kts 257°
2026-05-06 16:55 51.15056 -0.19236 213 ft 15 kts 241°
2026-05-06 16:55 51.14977 -0.19275 213 ft 11 kts 212°
2026-05-06 16:56 51.14944 -0.19402 206 ft 15 kts 257°
2026-05-06 16:56 51.14920 -0.19569 206 ft 16 kts 257°
2026-05-06 16:56 51.14896 -0.19746 213 ft 17 kts 257°
2026-05-06 16:56 51.14869 -0.19938 208 ft 19 kts 257°
2026-05-06 16:57 51.14841 -0.20147 213 ft 20 kts 258°
2026-05-06 16:57 51.14811 -0.20373 207 ft 21 kts 257°
2026-05-06 16:57 51.14780 -0.20599 207 ft 21 kts 258°
2026-05-06 16:57 51.14749 -0.20834 210 ft 22 kts 258°
2026-05-06 16:58 51.14725 -0.21002 213 ft 14 kts 257°
2026-05-06 16:58 51.14708 -0.21128 209 ft 9 kts 258°
2026-05-06 16:58 51.14698 -0.21200 204 ft 4 kts 258°
2026-05-06 16:58 51.14697 -0.21204 214 ft 0 kts 258°
2026-05-06 17:02 51.14697 -0.21206 213 ft 0 kts 258°
2026-05-06 17:02 51.14695 -0.21219 210 ft 4 kts 258°
2026-05-06 17:02 51.14685 -0.21295 211 ft 8 kts 253°
2026-05-06 17:03 51.14636 -0.21332 204 ft 6 kts 176°
2026-05-06 17:03 51.14588 -0.21315 214 ft 8 kts 164°
2026-05-06 17:03 51.14536 -0.21262 206 ft 10 kts 132°
2026-05-06 17:03 51.14523 -0.21151 202 ft 10 kts 77°
2026-05-06 17:04 51.14541 -0.21023 213 ft 22 kts 76°
2026-05-06 17:04 51.14633 -0.20378 206 ft 95 kts 77°
2026-05-06 17:04 51.14822 -0.19023 209 ft 153 kts 76°
2026-05-06 17:04 51.15078 -0.17265 660 ft 166 kts 76°
2026-05-06 17:05 51.15326 -0.15455 1421 ft 170 kts 75°
2026-05-06 17:05 51.15584 -0.13521 1790 ft 188 kts 74°
2026-05-06 17:05 51.15876 -0.11382 2003 ft 208 kts 74°
2026-05-06 17:05 51.16199 -0.09035 2340 ft 223 kts 75°
2026-05-06 17:06 51.16646 -0.06665 3073 ft 223 kts 56°
2026-05-06 17:06 51.17803 -0.05119 3807 ft 222 kts 16°
2026-05-06 17:06 51.19325 -0.05088 4568 ft 222 kts 348°
2026-05-06 17:06 51.20843 -0.05619 5329 ft 225 kts 342°
2026-05-06 17:07 51.22192 -0.06903 5890 ft 237 kts 313°
2026-05-06 17:07 51.23019 -0.09273 6222 ft 258 kts 282°
2026-05-06 17:07 51.22906 -0.12157 6804 ft 268 kts 253°
2026-05-06 17:07 51.22279 -0.14943 7487 ft 272 kts 252°
2026-05-06 17:08 51.21644 -0.17802 8201 ft 276 kts 253°
2026-05-06 17:08 51.21009 -0.20710 8911 ft 279 kts 253°
2026-05-06 17:08 51.20370 -0.23654 9613 ft 283 kts 253°
2026-05-06 17:08 51.19720 -0.26647 10203 ft 291 kts 253°
2026-05-06 17:09 51.19034 -0.29810 10356 ft 313 kts 252°
2026-05-06 17:09 51.18297 -0.33205 10477 ft 335 kts 252°
2026-05-06 17:09 51.17517 -0.36772 10839 ft 345 kts 252°
2026-05-06 17:09 51.16718 -0.40401 11418 ft 349 kts 252°
2026-05-06 17:10 51.15909 -0.44056 12039 ft 351 kts 252°
2026-05-06 17:10 51.15093 -0.47739 12671 ft 354 kts 252°
2026-05-06 17:10 51.14271 -0.51449 13313 ft 357 kts 252°
2026-05-06 17:10 51.13445 -0.55189 13942 ft 359 kts 252°
2026-05-06 17:11 51.12613 -0.58953 14492 ft 362 kts 252°
2026-05-06 17:11 51.11772 -0.62741 15031 ft 364 kts 252°
2026-05-06 17:11 51.10924 -0.66548 15580 ft 367 kts 252°
2026-05-06 17:11 51.10067 -0.70383 16134 ft 369 kts 251°
2026-05-06 17:12 51.09201 -0.74242 16674 ft 372 kts 251°
2026-05-06 17:12 51.08326 -0.78125 17204 ft 374 kts 251°
2026-05-06 17:12 51.07464 -0.81962 17732 ft 377 kts 251°
2026-05-06 17:12 51.06566 -0.85972 18269 ft 379 kts 251°
2026-05-06 17:13 51.05678 -0.89940 18708 ft 382 kts 251°
2026-05-06 17:13 51.04783 -0.93929 19123 ft 384 kts 251°
2026-05-06 17:13 51.03879 -0.97935 19565 ft 387 kts 251°
2026-05-06 17:13 51.02967 -1.01961 20018 ft 389 kts 251°
2026-05-06 17:14 51.02043 -1.06015 20469 ft 391 kts 251°
2026-05-06 17:14 51.01114 -1.10087 20899 ft 393 kts 251°
2026-05-06 17:14 51.00179 -1.14179 21336 ft 395 kts 251°
2026-05-06 17:14 50.99242 -1.18291 21764 ft 398 kts 251°
2026-05-06 17:15 50.98300 -1.22428 22196 ft 400 kts 251°
2026-05-06 17:15 50.97350 -1.26589 22629 ft 402 kts 251°
2026-05-06 17:15 50.96205 -1.30641 23044 ft 405 kts 241°
2026-05-06 17:15 50.94593 -1.34310 23454 ft 408 kts 230°
2026-05-06 17:16 50.92552 -1.37468 23812 ft 412 kts 220°
2026-05-06 17:16 50.90188 -1.40069 24146 ft 415 kts 214°
2026-05-06 17:16 50.87762 -1.42582 24491 ft 417 kts 215°
2026-05-06 17:16 50.85330 -1.45109 24819 ft 420 kts 215°
2026-05-06 17:17 50.82917 -1.47620 25136 ft 422 kts 215°
2026-05-06 17:17 50.80459 -1.50180 25461 ft 424 kts 215°
2026-05-06 17:17 50.77991 -1.52748 25783 ft 426 kts 215°
2026-05-06 17:17 50.75475 -1.55356 26117 ft 428 kts 215°
2026-05-06 17:18 50.73013 -1.57902 26442 ft 430 kts 214°
2026-05-06 17:18 50.70470 -1.60523 26766 ft 432 kts 214°
2026-05-06 17:18 50.67979 -1.63083 27079 ft 434 kts 214°
2026-05-06 17:18 50.65444 -1.65686 27392 ft 436 kts 214°
2026-05-06 17:19 50.62897 -1.68300 27688 ft 438 kts 214°
2026-05-06 17:19 50.60336 -1.70928 27937 ft 441 kts 214°
2026-05-06 17:19 50.57758 -1.73570 28223 ft 443 kts 214°
2026-05-06 17:19 50.55165 -1.76224 28505 ft 445 kts 214°
2026-05-06 17:20 50.52561 -1.78884 28779 ft 447 kts 214°
2026-05-06 17:20 50.49950 -1.81553 29048 ft 449 kts 214°
2026-05-06 17:20 50.47327 -1.84235 29287 ft 451 kts 214°
2026-05-06 17:20 50.44694 -1.86921 29548 ft 452 kts 214°
2026-05-06 17:21 50.42059 -1.89601 29865 ft 451 kts 214°
2026-05-06 17:21 50.39427 -1.92270 30186 ft 450 kts 214°
2026-05-06 17:21 50.36794 -1.94940 30428 ft 451 kts 214°
2026-05-06 17:21 50.34162 -1.97608 30688 ft 450 kts 214°
2026-05-06 17:22 50.31534 -2.00266 30961 ft 450 kts 214°
2026-05-06 17:22 50.28906 -2.02919 31244 ft 449 kts 214°
2026-05-06 17:22 50.26168 -2.05260 31504 ft 450 kts 205°
2026-05-06 17:22 50.23214 -2.06902 31782 ft 451 kts 196°
2026-05-06 17:23 50.20130 -2.07809 32055 ft 453 kts 187°
2026-05-06 17:23 50.16988 -2.08223 32308 ft 453 kts 186°
2026-05-06 17:23 50.13853 -2.08627 32551 ft 453 kts 186°
2026-05-06 17:23 50.10713 -2.09038 32806 ft 452 kts 186°
2026-05-06 17:24 50.07579 -2.09450 33064 ft 452 kts 186°
2026-05-06 17:24 50.04444 -2.09859 33329 ft 451 kts 186°
2026-05-06 17:24 50.01317 -2.10265 33594 ft 451 kts 186°
2026-05-06 17:24 49.98213 -2.10849 33850 ft 449 kts 193°
2026-05-06 17:25 49.95204 -2.12067 34087 ft 446 kts 199°
2026-05-06 17:25 49.92229 -2.13464 34265 ft 447 kts 198°
2026-05-06 17:25 49.89249 -2.14865 34432 ft 447 kts 198°
2026-05-06 17:25 49.86273 -2.16261 34628 ft 447 kts 198°
2026-05-06 17:26 49.83291 -2.17655 34814 ft 448 kts 198°
2026-05-06 17:26 49.80308 -2.19041 34962 ft 448 kts 198°
2026-05-06 17:26 49.77327 -2.20424 35001 ft 446 kts 198°
2026-05-06 17:27 49.71389 -2.23180 34998 ft 445 kts 198°
2026-05-06 17:27 49.65452 -2.25937 35002 ft 445 kts 198°
2026-05-06 17:28 49.59516 -2.28678 35002 ft 445 kts 198°
2026-05-06 17:28 49.53579 -2.31401 35002 ft 445 kts 198°
2026-05-06 17:29 49.47638 -2.34122 34999 ft 446 kts 198°
2026-05-06 17:29 49.41691 -2.36852 35006 ft 446 kts 198°
2026-05-06 17:30 49.35740 -2.39582 35009 ft 447 kts 198°
2026-05-06 17:30 49.29775 -2.42301 35009 ft 447 kts 198°
2026-05-06 17:31 49.23807 -2.45011 35009 ft 448 kts 198°
2026-05-06 17:31 49.18845 -2.47269 35011 ft 448 kts 198°
2026-05-06 17:32 49.12873 -2.49971 35017 ft 448 kts 198°
2026-05-06 17:32 49.06894 -2.52667 35013 ft 448 kts 198°
2026-05-06 17:33 49.00919 -2.55365 35004 ft 448 kts 198°
2026-05-06 17:33 48.94949 -2.58056 34998 ft 448 kts 198°
2026-05-06 17:34 48.88966 -2.60735 35000 ft 448 kts 198°
2026-05-06 17:34 48.82979 -2.63412 34997 ft 448 kts 198°
2026-05-06 17:35 48.76994 -2.66081 35000 ft 448 kts 198°
2026-05-06 17:35 48.71015 -2.68747 34998 ft 448 kts 198°
2026-05-06 17:36 48.62043 -2.72720 34998 ft 448 kts 198°
2026-05-06 17:36 48.56062 -2.75360 34994 ft 448 kts 198°
2026-05-06 17:37 48.50075 -2.77996 35000 ft 448 kts 198°
2026-05-06 17:37 48.44088 -2.80631 34995 ft 449 kts 198°
2026-05-06 17:38 48.38095 -2.83264 34987 ft 449 kts 198°